Atlantic City, NJ

8:46 AM EDT on April 24, 2018 (GMT -0400)
Atlantic City International

Weather History for KACY - July, 2014

Change the Weather History Date:

Friday, July 25, 2014

  Actual Average Record
Temperature  
Mean Temperature 71 °F 76 °F  
Max Temperature 81 °F 86 °F 99 °F (2010)
Min Temperature 60 °F 67 °F 53 °F (1969)
Degree Days  
Heating Degree Days 0 0  
Month to date heating degree days 0 0  
Since 1 June heating degree days 10 27  
Since 1 July heating degree days 0 0  
Cooling Degree Days 6 11  
Month to date cooling degree days 247 280  
Year to date cooling degree days 479 547  
Since 1 June cooling degree days 443 483  
Growing Degree Days 20 (Base 50)    
Moisture  
Dew Point 60 °F    
Average Humidity 71    
Maximum Humidity 93    
Minimum Humidity 48    
Precipitation  
Precipitation 0.00 in 0.12 in 1.67 in (1926)
Month to date precipitation 4.34 2.96  
Year to date precipitation 26.06 23.35  
Snow  
Snow 0.00 in 0.00 in 0.00 in ()
Month to date snowfall 0.0 0.0  
Since 1 June snowfall 0.0 0.0  
Since 1 July snowfall 0.0 0.0  
Snow Depth 0.00 in    
Sea Level Pressure  
Sea Level Pressure 29.99 in    
Wind  
Wind Speed 7 mph (East)    
Max Wind Speed 13 mph    
Max Gust Speed 19 mph    
Visibility 10 miles    
Events      
T = Trace of Precipitation, MM = Missing Value Source: NWS Daily Summary

Daily Weather History Graph

Daily Weather History Graph

Search for Another Location

Airport or City:

Astronomy

Jul. 25, 2014 Rise Set
Actual Time 5:51 AM EDT 8:17 PM EDT
Civil Twilight 5:21 AM EDT 8:47 PM EDT
Nautical Twilight 4:43 AM EDT 9:25 PM EDT
Astronomical Twilight 4:01 AM EDT 10:07 PM EDT
Moon 4:48 AM EDT (7/25) 7:12 PM EDT (7/25)
Length of Visible Light 15h 26m
Length of Day
14h 25m
Waning Crescent, 1% of the Moon is Illuminated
Jul 25
Waning Crescent
Jul 26
New
Aug 3
First Quarter
Aug 10
Full
Aug 17
Last Quarter

Hourly Weather History & Observations

Time (EDT) Temp. Dew Point Humidity Pressure Visibility Wind Dir Wind Speed Gust Speed Precip Events Conditions
12:54 AM 64.9 °F 62.1 °F 90% 29.91 in 10.0 mi NNW 5.8 mph - N/A   Clear
1:54 AM 64.0 °F 57.9 °F 80% 29.93 in 10.0 mi North - - N/A   Clear
2:54 AM 63.0 °F 55.9 °F 78% 29.94 in 10.0 mi North - - N/A   Partly Cloudy
3:54 AM 62.1 °F 55.0 °F 78% 29.95 in 10.0 mi NW 4.6 mph - N/A   Clear
4:54 AM 61.0 °F 55.0 °F 81% 29.95 in 10.0 mi NW 4.6 mph - N/A   Clear
5:54 AM 60.1 °F 54.0 °F 80% 29.96 in 10.0 mi NW 4.6 mph - N/A   Clear
6:54 AM 62.1 °F 55.9 °F 80% 29.98 in 10.0 mi NNW 5.8 mph - N/A   Clear
7:54 AM 66.0 °F 55.9 °F 70% 30.01 in 10.0 mi North 8.1 mph - N/A   Clear
8:54 AM 71.1 °F 57.9 °F 63% 30.02 in 10.0 mi North 6.9 mph - N/A   Clear
9:54 AM 73.9 °F 60.1 °F 62% 30.02 in 10.0 mi NE 4.6 mph - N/A   Clear
10:54 AM 77.0 °F 61.0 °F 58% 30.01 in 10.0 mi Variable 3.5 mph - N/A   Clear
11:54 AM 79.0 °F 59.0 °F 50% 30.02 in 10.0 mi NNW 5.8 mph - N/A   Scattered Clouds
12:54 PM 78.1 °F 57.9 °F 50% 30.01 in 10.0 mi ENE 5.8 mph - N/A   Scattered Clouds
1:54 PM 75.9 °F 63.0 °F 64% 30.01 in 10.0 mi SE 10.4 mph - N/A   Mostly Cloudy
2:54 PM 78.1 °F 63.0 °F 60% 30.00 in 10.0 mi East 9.2 mph - N/A   Clear
3:54 PM 78.1 °F 64.0 °F 62% 30.00 in 10.0 mi East 10.4 mph - N/A   Partly Cloudy
4:54 PM 77.0 °F 63.0 °F 62% 29.99 in 10.0 mi SE 11.5 mph - N/A   Clear
5:54 PM 75.9 °F 64.0 °F 67% 30.00 in 10.0 mi SE 9.2 mph - N/A   Clear
6:54 PM 75.0 °F 64.0 °F 69% 30.01 in 10.0 mi SSE 9.2 mph - N/A   Clear
7:54 PM 73.0 °F 64.0 °F 73% 30.01 in 10.0 mi South 8.1 mph - N/A   Clear
8:54 PM 71.1 °F 64.0 °F 78% 30.04 in 10.0 mi South 5.8 mph - N/A   Clear
9:54 PM 70.0 °F 64.0 °F 81% 30.04 in 10.0 mi South 6.9 mph - N/A   Clear
10:54 PM 69.1 °F 64.9 °F 87% 30.03 in 10.0 mi South 6.9 mph - N/A   Clear
11:54 PM 69.1 °F 64.9 °F 87% 30.02 in 10.0 mi South 4.6 mph - N/A   Clear